TimeCDT,TemperatureF,Dew PointF,Humidity,Sea Level PressureIn,VisibilityMPH,Wind Direction,Wind SpeedMPH,Gust SpeedMPH,PrecipitationIn,Events,Conditions,WindDirDegrees,DateUTC
12:15 AM,57.2,46.4,67,30.35,10.0,South,5.8,-,N/A,,Clear,190,2013-03-14 05:15:00
12:35 AM,57.2,46.4,67,30.35,10.0,SSW,3.5,-,N/A,,Clear,210,2013-03-14 05:35:00
12:55 AM,57.2,46.4,67,30.34,10.0,SW,4.6,-,N/A,,Clear,230,2013-03-14 05:55:00
1:15 AM,57.2,46.4,67,30.34,10.0,Calm,Calm,-,N/A,,Clear,0,2013-03-14 06:15:00
1:35 AM,57.2,46.4,67,30.33,10.0,Calm,Calm,-,N/A,,Clear,0,2013-03-14 06:35:00
1:55 AM,55.4,46.4,72,30.33,10.0,Calm,Calm,-,N/A,,Clear,0,2013-03-14 06:55:00
2:55 AM,55.4,48.2,77,30.32,10.0,South,4.6,-,N/A,,Clear,190,2013-03-14 07:55:00
3:15 AM,55.4,48.2,77,30.31,10.0,South,6.9,-,N/A,,Clear,180,2013-03-14 08:15:00
3:55 AM,55.4,48.2,77,30.30,10.0,South,6.9,-,N/A,,Clear,190,2013-03-14 08:55:00
4:15 AM,53.6,48.2,82,30.31,10.0,South,4.6,-,N/A,,Clear,190,2013-03-14 09:15:00
4:35 AM,53.6,48.2,82,30.31,10.0,South,4.6,-,N/A,,Clear,180,2013-03-14 09:35:00
4:55 AM,53.6,48.2,82,30.31,10.0,Calm,Calm,-,N/A,,Clear,0,2013-03-14 09:55:00
5:15 AM,51.8,48.2,88,30.31,10.0,Calm,Calm,-,N/A,,Clear,0,2013-03-14 10:15:00
5:35 AM,53.6,48.2,82,30.31,9.0,Calm,Calm,-,N/A,,Clear,0,2013-03-14 10:35:00
5:55 AM,53.6,48.2,82,30.32,10.0,Calm,Calm,-,N/A,,Clear,0,2013-03-14 10:55:00
6:15 AM,53.6,50.0,88,30.32,10.0,Calm,Calm,-,N/A,,Clear,0,2013-03-14 11:15:00
6:35 AM,53.6,48.2,82,30.33,9.0,Calm,Calm,-,N/A,,Clear,0,2013-03-14 11:35:00
6:55 AM,53.6,48.2,82,30.34,9.0,SE,3.5,-,N/A,,Clear,130,2013-03-14 11:55:00
7:15 AM,53.6,48.2,82,30.34,10.0,SE,5.8,-,N/A,,Clear,140,2013-03-14 12:15:00
7:35 AM,53.6,48.2,82,30.35,7.0,ESE,5.8,-,N/A,,Clear,120,2013-03-14 12:35:00
7:55 AM,53.6,50.0,88,30.35,8.0,SE,8.1,-,N/A,,Clear,140,2013-03-14 12:55:00
8:15 AM,55.4,50.0,82,30.35,6.0,SSE,6.9,-,N/A,,Clear,150,2013-03-14 13:15:00
8:35 AM,55.4,50.0,82,30.36,6.0,SE,5.8,-,N/A,,Clear,140,2013-03-14 13:35:00
8:55 AM,57.2,50.0,77,30.37,7.0,SE,5.8,-,N/A,,Clear,140,2013-03-14 13:55:00
9:15 AM,59.0,50.0,72,30.37,8.0,SSE,5.8,-,N/A,,Clear,150,2013-03-14 14:15:00
9:35 AM,60.8,48.2,63,30.38,9.0,South,5.8,-,N/A,,Clear,170,2013-03-14 14:35:00
9:55 AM,62.6,46.4,55,30.38,10.0,South,12.7,17.3,N/A,,Clear,180,2013-03-14 14:55:00
10:15 AM,62.6,44.6,52,30.38,10.0,SSE,10.4,-,N/A,,Clear,150,2013-03-14 15:15:00
10:35 AM,64.4,44.6,49,30.39,10.0,South,6.9,-,N/A,,Clear,190,2013-03-14 15:35:00
10:55 AM,66.2,37.4,35,30.39,10.0,SSE,6.9,16.1,N/A,,Clear,150,2013-03-14 15:55:00
11:15 AM,66.2,39.2,37,30.39,10.0,South,9.2,-,N/A,,Clear,180,2013-03-14 16:15:00
11:35 AM,68.0,41.0,37,30.39,10.0,ESE,6.9,-,N/A,,Clear,120,2013-03-14 16:35:00
12:15 PM,69.8,41.0,35,30.38,9.0,SSE,5.8,-,N/A,,Clear,150,2013-03-14 17:15:00
12:35 PM,69.8,39.2,33,30.38,10.0,South,5.8,17.3,N/A,,Clear,190,2013-03-14 17:35:00
12:55 PM,71.6,37.4,29,30.37,10.0,SSW,4.6,19.6,N/A,,Clear,210,2013-03-14 17:55:00
1:15 PM,71.6,37.4,29,30.36,10.0,South,15.0,20.7,N/A,,Clear,170,2013-03-14 18:15:00
1:35 PM,71.6,37.4,29,30.35,10.0,South,11.5,20.7,N/A,,Clear,170,2013-03-14 18:35:00
1:55 PM,73.4,37.4,27,30.34,10.0,South,6.9,16.1,N/A,,Clear,190,2013-03-14 18:55:00
2:15 PM,71.6,37.4,29,30.33,10.0,South,6.9,19.6,N/A,,Clear,170,2013-03-14 19:15:00
2:55 PM,73.4,37.4,27,30.30,10.0,SW,6.9,-,N/A,,Clear,220,2013-03-14 19:55:00
3:15 PM,71.6,37.4,29,30.29,10.0,Calm,Calm,-,N/A,,Clear,0,2013-03-14 20:15:00
3:35 PM,73.4,39.2,29,30.29,10.0,South,10.4,18.4,N/A,,Clear,180,2013-03-14 20:35:00
3:55 PM,73.4,39.2,29,30.28,10.0,SE,8.1,-,N/A,,Clear,140,2013-03-14 20:55:00
4:15 PM,73.4,39.2,29,30.28,10.0,SSE,10.4,19.6,N/A,,Clear,160,2013-03-14 21:15:00
4:35 PM,73.4,39.2,29,30.27,10.0,South,10.4,18.4,N/A,,Clear,190,2013-03-14 21:35:00
4:55 PM,71.6,41.0,33,30.27,10.0,South,12.7,16.1,N/A,,Clear,170,2013-03-14 21:55:00
5:15 PM,71.6,41.0,33,30.27,10.0,South,15.0,18.4,N/A,,Clear,180,2013-03-14 22:15:00
5:35 PM,71.6,42.8,35,30.26,10.0,South,15.0,19.6,N/A,,Clear,170,2013-03-14 22:35:00
5:55 PM,69.8,44.6,40,30.26,10.0,South,15.0,20.7,N/A,,Clear,180,2013-03-14 22:55:00
6:15 PM,68.0,44.6,43,30.26,10.0,South,11.5,23.0,N/A,,Clear,170,2013-03-14 23:15:00
6:35 PM,68.0,46.4,46,30.25,10.0,South,19.6,23.0,N/A,,Clear,180,2013-03-14 23:35:00
6:55 PM,66.2,46.4,49,30.25,10.0,South,15.0,19.6,N/A,,Clear,180,2013-03-14 23:55:00
7:15 PM,64.4,46.4,52,30.25,10.0,South,16.1,20.7,N/A,,Clear,180,2013-03-15 00:15:00
7:35 PM,64.4,48.2,56,30.26,10.0,South,11.5,19.6,N/A,,Clear,180,2013-03-15 00:35:00
7:55 PM,62.6,48.2,59,30.26,10.0,South,15.0,23.0,N/A,,Clear,180,2013-03-15 00:55:00
8:15 PM,62.6,46.4,55,30.27,10.0,South,12.7,-,N/A,,Clear,180,2013-03-15 01:15:00
8:35 PM,60.8,46.4,59,30.27,10.0,South,12.7,-,N/A,,Clear,180,2013-03-15 01:35:00
8:55 PM,60.8,46.4,59,30.27,10.0,South,15.0,-,N/A,,Clear,180,2013-03-15 01:55:00
9:15 PM,59.0,46.4,63,30.28,10.0,South,11.5,-,N/A,,Clear,180,2013-03-15 02:15:00
9:35 PM,59.0,46.4,63,30.28,10.0,South,12.7,16.1,N/A,,Clear,180,2013-03-15 02:35:00
9:55 PM,59.0,46.4,63,30.28,10.0,South,12.7,-,N/A,,Clear,180,2013-03-15 02:55:00
10:15 PM,59.0,48.2,67,30.28,10.0,South,13.8,-,N/A,,Clear,180,2013-03-15 03:15:00
10:35 PM,59.0,48.2,67,30.27,10.0,South,11.5,-,N/A,,Clear,190,2013-03-15 03:35:00
10:55 PM,57.2,48.2,72,30.27,10.0,South,9.2,16.1,N/A,,Clear,180,2013-03-15 03:55:00
11:15 PM,57.2,48.2,72,30.26,10.0,South,10.4,16.1,N/A,,Clear,190,2013-03-15 04:15:00
11:35 PM,57.2,48.2,72,30.26,10.0,SSW,9.2,-,N/A,,Clear,200,2013-03-15 04:35:00
11:55 PM,57.2,48.2,72,30.26,10.0,South,9.2,-,N/A,,Clear,190,2013-03-15 04:55:00